Location: Newark
(47.0000°N, 7.6833°E)
Time: 16:48:53
(UTC+00:00)

Envisat - Pass Details

Date: 28 August 2019
Orbit: 764 x 766 km, 98.1° (Epoch: 23 October)

Event Time Altitude Azimuth Distance (km) Brightness Sun altitude
Rises 18:36:56 0° 198° (SSW) 3,220 6.2 -4.0°
Reaches altitude 10° 18:39:36 10° 211° (SSW) 2,299 5.6 -4.4°
Maximum altitude 18:43:47 26° 267° (W) 1,489 5.5 -5.1°
Drops below altitude 10° 18:48:01 10° 323° (NW) 2,314 6.5 -5.8°
Sets 18:50:42 0° 336° (NNW) 3,246 7.0 -6.2°
